FW2611 Weather Reports


Display with metric or nautical units.
time (UTC)temp
F
wind
direction
speed
MPH
gust
MPH
rain 1hr
in
rain 24hr
in
rain mn
in
humidity
%
barometer
mb
20260902103012 74 49 7.0 11.0 0.00 0.61 0.00 91 1018.4
20260902101520 74 51 5.0 12.0 0.00 0.61 0.00 91 1018.3
20260902100023 74 74 4.0 14.0 0.00 0.61 0.00 92 1018.3
20260902094529 74 32 4.0 10.0 0.00 0.61 0.00 92 1018.3
20260902093030 74 82 4.0 10.0 0.00 0.61 0.00 93 1018.0
20260902091516 73 55 7.0 11.0 0.00 0.61 0.00 93 1018.0
20260902090025 73 33 2.0 7.0 0.00 0.61 0.00 93 1018.0
20260902084530 73 9 4.0 9.0 0.00 0.61 0.00 93 1017.9
20260902083028 72 309 3.0 9.0 0.00 0.61 0.00 93 1018.0
20260902081530 72 320 5.0 9.0 0.00 0.61 0.00 93 1017.8
20260902080018 72 338 3.0 10.0 0.00 0.61 0.00 92 1017.6
20260902074525 72 40 3.0 10.0 0.00 0.61 0.00 92 1017.5
20260902073027 72 347 3.0 9.0 0.00 0.61 0.00 92 1017.4
20260902071530 72 39 4.0 10.0 0.00 0.61 0.00 92 1017.4
20260902070031 72 13 4.0 9.0 0.00 0.61 0.00 91 1017.4
20260902064524 72 9 6.0 11.0 0.00 0.61 0.00 90 1017.4
20260902063051 72 5 4.0 7.0 0.00 0.61 0.00 89 1017.7
20260902061508 72 9 4.0 9.0 0.00 0.61 0.00 90 1017.7
20260902060012 73 342 4.0 8.0 0.00 0.61 0.00 90 1017.3
20260902054519 72 13 2.0 9.0 0.00 0.61 0.00 90 1017.1
20260902053022 73 351 1.0 10.0 0.00 0.61 0.00 90 1017.1
20260902051537 73 352 2.0 5.0 0.00 0.61 0.00 89 1017.3
20260902050009 73 360 4.0 8.0 0.00 0.61 0.00 89 1017.3
20260902044516 73 209 0.0 2.0 0.00 0.61 0.00 88 1017.0
20260902043018 73 207 1.0 5.0 0.00 0.61 0.00 88 1016.8
20260902041541 72 188 4.0 10.0 0.00 0.61 0.00 89 1017.1
20260902040028 71 221 1.0 4.0 0.00 0.61 0.00 89 1017.0
20260902034512 71 134 0.0 7.0 0.00 0.61 0.61 89 1016.6
20260902033017 70 113 5.0 12.0 0.00 0.61 0.61 89 1016.6
20260902031523 71 103 4.0 11.0 0.17 0.61 0.61 91 1016.9
20260902030026 71 103 6.0 12.0 0.61 0.61 0.61 91 1017.3
20260902024530 71 55 9.0 20.0 0.61 0.61 0.61 92 1017.7
20260902023013 71 58 8.0 28.0 0.61 0.61 0.61 90 1017.8
20260902021522 72 12 18.0 34.0 0.44 0.44 0.44 88 1017.7
20260902020023 79 19 8.0 11.0 0.00 0.00 0.00 88 1015.9
20260902014533 79 221 2.0 9.0 0.00 0.00 0.00 88 1014.9
20260902013034 79 171 2.0 10.0 0.00 0.00 0.00 89 1014.2
20260902011519 79 161 2.0 10.0 0.00 0.00 0.00 89 1014.0
20260902010022 79 169 3.0 8.0 0.00 0.00 0.00 89 1013.9
20260902004533 79 187 3.0 8.0 0.00 0.00 0.00 88 1014.1
20260902003108 79 214 5.0 9.0 0.00 0.00 0.00 88 1014.1
20260902001534 80 210 6.0 11.0 0.00 0.00 0.00 88 1014.0
20260902000032 80 198 5.0 9.0 0.00 0.00 0.00 87 1013.9
20260901234523 80 205 5.0 10.0 0.00 0.00 0.00 86 1014.2
20260901233027 80 218 3.0 7.0 0.00 0.00 0.00 86 1014.3
20260901231529 81 213 4.0 10.0 0.00 0.00 0.00 85 1014.5
20260901230031 82 210 7.0 14.0 0.00 0.00 0.00 83 1014.3
20260901224521 83 177 3.0 11.0 0.00 0.00 0.00 80 1014.4
20260901223024 85 196 4.0 9.0 0.00 0.00 0.00 77 1014.3
20260901221538 86 209 6.0 11.0 0.00 0.00 0.00 75 1014.6
20260901220023 87 186 5.0 11.0 0.00 0.00 0.00 74 1014.7
20260901214516 87 165 5.0 12.0 0.00 0.00 0.00 73 1014.6
20260901213022 88 185 7.0 12.0 0.00 0.00 0.00 72 1014.8
20260901211504 88 210 6.0 12.0 0.00 0.00 0.00 71 1014.9
20260901210007 89 203 7.0 13.0 0.00 0.00 0.00 69 1014.8
20260901204514 90 204 5.0 12.0 0.00 0.00 0.00 68 1014.7
20260901203020 90 178 5.0 12.0 0.00 0.00 0.00 66 1014.7
20260901201523 90 192 5.0 10.0 0.00 0.00 0.00 68 1014.7
20260901200029 88 209 7.0 12.0 0.00 0.00 0.00 70 1015.2
20260901194508 89 205 4.0 9.0 0.00 0.00 0.00 70 1015.3
20260901193016 90 171 4.0 11.0 0.00 0.00 0.00 68 1015.4
20260901191533 89 217 6.0 12.0 0.00 0.00 0.00 69 1015.2
20260901190027 89 170 5.0 13.0 0.00 0.00 0.00 70 1015.5
20260901184531 87 184 7.0 12.0 0.00 0.00 0.00 72 1015.5
20260901183013 87 153 6.0 10.0 0.00 0.00 0.00 72 1015.6
20260901181517 87 167 4.0 9.0 0.00 0.00 0.00 71 1015.7
20260901180029 87 171 4.0 9.0 0.00 0.00 0.00 71 1015.9
20260901174526 87 273 4.0 9.0 0.00 0.00 0.00 68 1016.1
20260901173033 87 244 4.0 10.0 0.00 0.00 0.00 67 1016.3
20260901171516 88 273 4.0 12.0 0.00 0.00 0.00 64 1016.4
20260901170020 89 229 4.0 11.0 0.00 0.00 0.00 63 1016.3
20260901164527 89 273 2.0 11.0 0.00 0.00 0.00 65 1016.4
20260901163050 89 235 6.0 11.0 0.00 0.00 0.00 63 1016.5
20260901161533 88 173 1.0 6.0 0.00 0.00 0.00 69 1016.6
20260901160007 87 215 4.0 9.0 0.00 0.00 0.00 71 1016.8
20260901154503 87 198 4.0 13.0 0.00 0.00 0.00 72 1016.8
20260901153035 88 208 4.0 8.0 0.00 0.00 0.00 69 1017.0
20260901151508 87 173 4.0 9.0 0.00 0.00 0.00 69 1016.7
20260901150004 86 202 4.0 13.0 0.00 0.00 0.00 73 1016.7
20260901144510 86 213 5.0 9.0 0.00 0.00 0.00 72 1016.7
20260901143004 86 207 1.0 8.0 0.00 0.00 0.00 72 1016.8
20260901141504 85 246 4.0 13.0 0.00 0.00 0.00 68 1016.8
20260901140003 84 221 6.0 12.0 0.00 0.00 0.00 70 1017.2
20260901134506 83 256 6.0 11.0 0.00 0.00 0.00 74 1017.2
20260901133004 82 271 5.0 10.0 0.00 0.00 0.00 77 1017.4
20260901131504 81 263 6.0 12.0 0.00 0.00 0.00 80 1017.3
20260901130006 80 226 4.0 12.0 0.00 0.00 0.00 84 1017.6
20260901124505 79 236 4.0 11.0 0.00 0.00 0.00 87 1017.7
20260901123005 78 223 4.0 8.0 0.00 0.00 0.00 89 1017.5
20260901121507 77 259 2.0 6.0 0.00 0.00 0.00 90 1017.8
20260901120005 77 247 2.0 7.0 0.00 0.00 0.00 91 1017.7
20260901114507 76 219 2.0 6.0 0.00 0.00 0.00 91 1017.6
20260901113008 76 268 2.0 6.0 0.00 0.00 0.00 91 1017.8
20260901111510 76 240 1.0 5.0 0.00 0.00 0.00 91 1017.6
20260901110010 75 250 2.0 7.0 0.00 0.00 0.00 91 1017.5
20260901104515 75 215 2.0 7.0 0.00 0.00 0.00 91 1017.2